Regional Weather Roundup
Issued by NWS

Home | Current Version | Previous Version | Text Only | Print | Product List | Glossary On
Versions: 1 2 3 4 5 6 7 8 9 10 11 12 13 14 15 16 17 18 19 20 21 22 23 24 25 26 27 28 29 30 31 32 33 34 35 36 37 38 39 40 41 42 43 44 45 46 47 48 49 50
831
ASUS43 KLSX 220507
RWRMO

WEATHER SUMMARY FOR MISSOURI
NATIONAL WEATHER SERVICE SPRINGFIELD MO
1200 AM CDT FRI MAY 22 2015

NOTE: "FAIR" INDICATES FEW OR NO CLOUDS BELOW 12,000 FEET WITH NO
       SIGNIFICANT WEATHER AND/OR OBSTRUCTIONS TO VISIBILITY.
       CURRENT SKY AND/OR WEATHER CONDITIONS ARE NOT AVAILABLE FOR
       CHILLICOTHE AND FARMINGTON.

MOZ001>031-035>038-043-044-053-054-220600-
...NORTHERN AND WESTERN MISSOURI...

CITY           SKY/WX    TMP DP  RH WIND       PRES   REMARKS
KANSAS CTY INT MOCLDY    53  45  74 SW8       30.22R
KANSAS C DTWN  MOCLDY    55  48  77 SW5       30.21R
LEE`S SUMMIT   MOCLDY    53  44  71 SW5       30.23R
ST JOSEPH      PTCLDY    54  48  80 S3        30.21R
CHILLICOTHE      N/A     54  48  80 CALM      30.19R
KIRKSVILLE     CLEAR     56  46  69 SW7       30.16S

$$
MOZ066>068-077>081-088>096-101>105-220600-
...SOUTHWEST MISSOURI...

CITY           SKY/WX    TMP DP  RH WIND       PRES   REMARKS
SPRINGFIELD    CLEAR     49  44  83 CALM      30.23R
JOPLIN         CLEAR     47  46  97 E3        30.24F

$$
MOZ032>034-039>042-045>050-055>058-069>072-220600-
...CENTRAL MISSOURI...

CITY           SKY/WX    TMP DP  RH WIND       PRES   REMARKS
COLUMBIA       CLEAR     54  44  69 SW7       30.19S
JEFFERSON CITY CLEAR     52  47  83 CALM      30.20S
ROLLA          CLEAR     45  42  89 SW8       30.20R
SEDALIA        CLEAR     55  46  71 SW7       30.21F
WHITEMAN AFB   PTCLDY    52  46  79 SW6       30.20S
WARRENSBURG    PTCLDY    52  45  76 SW3       30.21S
OSAGE BEACH    CLEAR     46  43  87 CALM      30.22S

$$
MOZ051-052-059>065-220600-
...EAST CENTRAL MISSOURI...

CITY           SKY/WX    TMP DP  RH WIND       PRES   REMARKS
ST LOUIS INTL  CLEAR     55  42  61 SW6       30.18S
SPIRIT OF STL  CLEAR     49  46  90 CALM      30.18R
ST CHARLES     CLEAR     51  47  86 CALM      30.17S

$$
MOZ072>076-082>087-097>100-106>115-220600-
...SOUTH CENTRAL AND SOUTHEAST MISSOURI...

CITY           SKY/WX    TMP DP  RH WIND       PRES   REMARKS
CAPE GIRARDEAU CLEAR     47  46  97 CALM      30.22S
FARMINGTON     CLEAR     45  43  93 S3        30.25S
POPLAR BLUFF   CLEAR     49  47  93 CALM      30.23S
WEST PLAINS    CLEAR     44  41  89 CALM      30.24S

$$



USA.gov is the U.S. government's official web portal to all federal, state and local government web resources and services.